This demonstration page uses our WeatherBlox Daily Observations layout. Learn more.

Hourly Observations for April 8, 2015

Temp ( °F °C ) Dew Point ( °F °C ) Humidity (%) Winds ( mph kmh ) Pressure ( in mb ) Visibility ( mi km ) Precip ( " mm )
12:15 am 00:15 Cloudy with Mist and Fog 42 5.5 41 4.8 95 95 NE 12 19 29.94 1014 4 6.43736 0 0
12:35 am 00:35 Cloudy with Mist and Fog 41 5.2 40 4.6 96 96 NE 16 26 29.97 1015 4 6.43736 0 0
12:55 am 00:55 Cloudy with Mist and Fog 41 5.1 40 4.5 96 96 NE 15 24 29.97 1015 3 4.82802 0 0
1:15 am 01:15 Cloudy with Mist and Fog 41 5 40 4.5 97 97 NE 13 20 29.97 1015 4 6.43736 0 0
1:35 am 01:35 Cloudy with Mist and Fog 41 5 40 4.4 96 96 NE 13 20 29.97 1015 2.5 4.02335 0 0
1:55 am 01:55 Cloudy with Mist and Fog 41 5 40 4.4 96 96 NE 10 17 30 1016 3 4.82802 0 0
2:15 am 02:15 Cloudy with Mist and Fog 41 5 40 4.4 96 96 NE 12 19 30 1016 3 4.82802 0 0
2:35 am 02:35 Cloudy with Mist and Fog 41 5 40 4.4 96 96 ENE 7 11 30 1016 2 3.21868 0 0
2:55 am 02:55 Cloudy with Mist and Fog 41 5 40 4.5 97 97 NE 12 19 30 1016 1.75 2.816345 0 0
3:15 am 03:15 Cloudy with Mist and Fog 41 5 40 4.3 95 95 NE 12 19 30 1016 1 1.60934 0 0
3:35 am 03:35 Cloudy with Mist and Fog 41 5 40 4.3 95 95 NE 13 20 29.97 1015 0.75 1.207005 0 0
3:55 am 03:55 Cloudy with Mist and Fog 41 4.8 40 4.3 97 97 NE 10 17 29.97 1015 0.75 1.207005 0 0
4:15 am 04:15 Cloudy with Mist and Fog 41 4.8 40 4.3 97 97 NE 12 19 29.97 1015 1 1.60934 0 0
4:35 am 04:35 Cloudy with Mist and Fog 41 4.8 40 4.3 97 97 NE 10 17 29.97 1015 0.75 1.207005 0 0
4:55 am 04:55 Cloudy with Mist and Fog 40 4.7 40 4.2 97 97 NE 10 17 29.97 1015 0.75 1.207005 0 0
5:15 am 05:15 Cloudy with Fog 40 4.7 40 4.2 97 97 NE 9 15 29.97 1015 0.5 0.80467 0 0
5:35 am 05:35 Cloudy with Mist and Fog 40 4.7 40 4.2 97 97 NE 12 19 29.97 1015 0.75 1.207005 0 0
5:55 am 05:55 Cloudy with Fog 40 4.7 40 4.2 97 97 NE 10 17 29.97 1015 0.5 0.80467 0 0
6:15 am 06:15 Cloudy with Fog 40 4.6 39 4.1 97 97 NNE 13 20 29.97 1015 0.5 0.80467 0 0
6:35 am 06:35 Cloudy with Mist and Fog 40 4.5 39 4 97 97 NNE 14 22 29.97 1015 0.75 1.207005 0 0
6:55 am 06:55 Cloudy with Mist and Fog 40 4.5 39 4 97 97 NNE 13 20 29.97 1015 1.25 2.011675 0 0
7:15 am 07:15 Cloudy with Mist and Fog 40 4.5 39 4 97 97 NNE 14 22 29.97 1015 1.5 2.41401 0 0
7:35 am 07:35 Cloudy with Mist and Fog 40 4.5 39 4 97 97 NNE 15 24 29.97 1015 2 3.21868 0 0
7:55 am 07:55 Cloudy with Mist and Fog 40 4.5 39 4 97 97 NE 15 24 29.97 1015 1.25 2.011675 0 0
8:15 am 08:15 Cloudy with Mist and Fog 40 4.5 39 4 97 97 NE 16 26 29.91 1013 1.25 2.011675 0 0
8:35 am 08:35 Cloudy with Mist and Fog 40 4.5 39 4 97 97 NE 18 30 29.91 1013 2.5 4.02335 0 0
8:55 am 08:55 Cloudy with Mist and Fog 40 4.6 39 4.1 97 97 NE 15 24 29.88 1012 1.25 2.011675 0 0
9:15 am 09:15 Cloudy with Mist and Fog 41 4.8 40 4.3 97 97 NE 13 20 29.88 1012 2 3.21868 0 0
9:35 am 09:35 Cloudy with Mist and Fog 41 5 40 4.5 97 97 ENE 14 22 29.88 1012 4 6.43736 0 0
9:55 am 09:55 Cloudy with Mist and Fog 41 5 40 4.5 97 97 ENE 13 20 29.88 1012 4 6.43736 0 0
10:15 am 10:15 Cloudy with Mist and Fog 41 5 40 4.5 97 97 ENE 12 19 29.88 1012 2.5 4.02335 0 0
10:35 am 10:35 Cloudy with Mist and Fog 41 5 40 4.5 97 97 E 12 19 29.88 1012 2.5 4.02335 0 0
10:55 am 10:55 Cloudy with Mist and Fog 41 5 40 4.5 97 97 ENE 13 20 29.88 1012 2 3.21868 0 0
11:15 am 11:15 Cloudy with Mist and Fog 41 5.2 40 4.7 97 97 E 12 19 29.88 1012 1.25 2.011675 0 0
11:35 am 11:35 Cloudy with Mist and Fog 42 5.3 40 4.7 96 96 ENE 10 17 29.88 1012 1 1.60934 0 0
11:55 am 11:55 Cloudy with Mist and Fog 42 5.6 41 5 96 96 E 8 13 29.88 1012 0.75 1.207005 0 0
12:15 pm 12:15 Cloudy with Mist and Fog 42 5.7 41 5.1 96 96 E 9 15 29.88 1012 1 1.60934 0 0
12:35 pm 12:35 Cloudy with Mist and Fog 42 5.8 41 5.2 96 96 ENE 5 7 29.85 1011 1 1.60934 0 0
12:55 pm 12:55 Cloudy with Mist and Fog 43 6 42 5.3 95 95 E 9 15 29.85 1011 1.25 2.011675 0 0
1:15 pm 13:15 Cloudy with Mist and Fog 43 6.1 42 5.6 97 97 E 8 13 29.85 1011 2 3.21868 0 0
1:35 pm 13:35 Cloudy with Mist and Fog 43 6.2 42 5.6 96 96 ENE 8 13 29.83 1010 1.75 2.816345 0 0
1:55 pm 13:55 Cloudy with Mist and Fog 44 6.4 42 5.8 96 96 NE 9 15 29.83 1010 1.75 2.816345 0 0
2:15 pm 14:15 Cloudy with Mist and Fog 44 6.4 42 5.8 96 96 ENE 10 17 29.83 1010 2 3.21868 0 0
2:35 pm 14:35 Cloudy with Mist and Fog 44 6.4 42 5.7 95 95 NE 9 15 29.83 1010 1.5 2.41401 0 0
2:55 pm 14:55 Cloudy with Mist and Fog 44 6.5 42 5.8 95 95 NE 9 15 29.83 1010 1.5 2.41401 0 0
3:15 pm 15:15 Cloudy with Mist and Fog 43 6.3 42 5.7 96 96 ENE 9 15 29.83 1010 1.25 2.011675 0 0
3:35 pm 15:35 Cloudy with Mist and Fog 43 6.3 42 5.7 96 96 E 9 15 29.8 1009 1 1.60934 0 0
3:55 pm 15:55 Cloudy with Mist and Fog 44 6.5 43 5.9 96 96 E 10 17 29.77 1008 1.5 2.41401 0 0
4:15 pm 16:15 Cloudy with Mist and Fog 44 6.6 43 6 96 96 ENE 10 17 29.74 1007 1.5 2.41401 0 0
4:35 pm 16:35 Cloudy with Mist and Fog 44 6.7 43 6.1 96 96 ENE 12 19 29.74 1007 1.25 2.011675 0 0
4:55 pm 16:55 Cloudy with Mist and Fog 44 6.6 43 6 96 96 ENE 10 17 29.74 1007 1.75 2.816345 0 0
5:15 pm 17:15 Cloudy with Mist and Fog 44 6.7 43 6.1 96 96 ENE 12 19 29.74 1007 1.75 2.816345 0 0
5:35 pm 17:35 Cloudy with Mist and Fog 44 6.6 43 6 96 96 E 12 19 29.74 1007 1.5 2.41401 0 0
5:55 pm 17:55 Cloudy with Mist and Fog 44 6.7 43 6.1 96 96 ENE 16 26 29.71 1006 1.5 2.41401 0 0
6:15 pm 18:15 Cloudy with Mist and Fog 44 6.7 43 6.1 96 96 E 14 22 29.71 1006 1 1.60934 0 0
6:35 pm 18:35 Cloudy with Mist and Fog 44 6.6 43 6 96 96 E 15 24 29.71 1006 0.75 1.207005 0 0
6:55 pm 18:55 Cloudy with Mist and Fog 44 6.6 43 6 96 96 ENE 13 20 29.71 1006 0.75 1.207005 0 0
7:15 pm 19:15 Cloudy with Mist and Fog 44 6.7 43 6.1 96 96 ENE 10 17 29.71 1006 1 1.60934 0 0
7:35 pm 19:35 Cloudy with Mist and Fog 44 6.6 43 6.1 97 97 ENE 12 19 29.68 1005 1.25 2.011675 0 0
7:55 pm 19:55 Cloudy with Mist and Fog 44 6.6 43 6.1 97 97 ENE 12 19 29.68 1005 3 4.82802 0 0
8:15 pm 20:15 Cloudy with Mist and Fog 44 6.6 43 6 96 96 ENE 10 17 29.68 1005 3 4.82802 0 0
8:35 pm 20:35 Cloudy with Mist and Fog 44 6.5 43 6 97 97 E 14 22 29.68 1005 5 8.0467 0 0
8:55 pm 20:55 Cloudy with Mist and Fog 44 6.5 43 6 97 97 E 13 20 29.71 1006 2.5 4.02335 0 0
9:15 pm 21:15 Cloudy with Mist and Fog 44 6.6 43 6 96 96 E 13 20 29.74 1007 3 4.82802 0 0
9:35 pm 21:35 Cloudy with Mist and Fog 44 6.6 43 6 96 96 ENE 12 19 29.71 1006 3 4.82802 0 0
9:55 pm 21:55 Cloudy with Mist and Fog 44 6.5 43 6 97 97 NE 15 24 29.68 1005 4 6.43736 0 0
10:15 pm 22:15 Cloudy with Mist and Fog 44 6.5 43 5.9 96 96 NE 12 19 29.68 1005 4 6.43736 0 0
10:35 pm 22:35 Cloudy with Mist and Fog 44 6.5 42 5.8 95 95 NE 10 17 29.71 1006 3 4.82802 0 0
10:55 pm 22:55 Cloudy with Mist and Fog 43 6.3 42 5.7 96 96 NE 16 26 29.68 1005 4 6.43736 0 0
11:15 pm 23:15 Cloudy with Mist and Fog 43 6.3 42 5.7 96 96 N 15 24 29.74 1007 3 4.82802 0 0
11:35 pm 23:35 Cloudy with Mist and Fog 43 6 42 5.5 97 97 N 15 24 29.74 1007 3 4.82802 0 0
11:55 pm 23:55 Cloudy with Light Drizzle 43 6 42 5.3 95 95 N 14 22 29.77 1008 3 4.82802 0 0

Powered by AerisWeather